Project,Study,Ord_Occ,Event_Num,Cast_ID,Date_Time_UTC,Date_Time_PST,Lat_Dec,Lon_Dec,Sta_ID,Line,Sta,Depth,Pressure,PrQ,Temp1,Temp1Q,Temp2,Temp2Q,TempAve,Salt1,Salt1Q,Salt1_Corr,Salt2,Salt2Q,Salt2_Corr,SaltAve_Corr,Ox1,Ox1Q,Ox1_CruiseCorr,Ox1_StaCorr,Ox2,Ox2Q,Ox2_CruiseCorr,Ox2_StaCorr,OxAve_StaCorr,Ox1uM,Ox1uM_CruiseCorr,Ox1uM_StaCorr,Ox2uM,Ox2uM_CruiseCorr,Ox2uM_StaCorr,OxAveuM_StaCorr,FluorV,FluorQ,EstChl_CruiseCorr,EstChl_StaCorr,ISUSV,ISUSQ,EstNO3_CruiseCorr,EstNO3_StaCorr,SigThetaTS1,SigThetaTS1Q,SigThetaTS2,SigThetaTS2Q,BAT,XMiss,TransQ,pH,pHQ,SPAR,SPARQ,PAR,PARQ,PoT1,PoT2,DynHt,SVA,OxSat1,OxSat2,BTL_Depth,BTL_Temp,SaltB,OxB,OxBuM,Chl-a,Phaeo,NO3,NO2,NH4,PO4,SIL
CalCOFI,2105SH,011,,2105_011d,06-May-2021 08:57:24,06-May-2021 00:57:24,31.17816,-120.92021,093.3 080.0,093.3,080.0,3.000,3.021,,14.8829,,14.8795,,14.8812,33.3296,,33.3308,33.3293,,33.3312,33.3310,5.6741,,6.0001,5.8421,5.7460,,6.0111,5.8520,5.8471,247.296,261.0220,206.0096,250.430,272.2089,206.3107,206.1602,0.1167,,0.6343,0.3940,2.6182,,0.0000,,24.7098,,24.7103,,,,,,,,,,,14.8824,14.8791,0.0045,322.495,98.428,99.669,3,14.786,33.2891,6.012,262.47,0.316,0.090,0.37,0.051,0.06,0.34,1.75
CalCOFI,2105SH,011,,2105_011d,06-May-2021 08:57:35,06-May-2021 00:57:35,31.17814,-120.92020,093.3 080.0,093.3,080.0,4.000,4.028,,14.8481,,14.8404,,14.8443,33.3349,,33.3361,33.3338,,33.3357,33.3359,5.6613,,5.9867,5.8289,5.7449,,6.0100,5.8508,5.8399,246.734,260.4345,205.5943,250.379,271.6019,206.2734,205.9339,0.1072,,0.5667,0.3500,2.6175,,0.0000,,24.7214,,24.7222,,,,,,,,,,,14.8475,14.8399,0.0093,321.417,98.141,99.574,,,,,,,,,,,,
CalCOFI,2105SH,011,,2105_011d,06-May-2021 08:57:36,06-May-2021 00:57:36,31.17813,-120.92021,093.3 080.0,093.3,080.0,5.000,5.035,,14.8734,,14.8500,,14.8617,33.3332,,33.3344,33.3351,,33.3370,33.3357,5.6873,,6.0139,5.8557,5.7535,,6.0189,5.8596,5.8577,247.867,261.6190,206.4315,250.752,272.8255,206.5466,206.4891,0.1125,,0.6045,0.3745,2.6172,,0.0000,,24.7147,,24.7211,,,,,,,,,,,14.8726,14.8493,0.0125,322.089,98.639,99.742,,,,,,,,,,,,
CalCOFI,2105SH,011,,2105_011d,06-May-2021 08:57:37,06-May-2021 00:57:37,31.17812,-120.92022,093.3 080.0,093.3,080.0,6.000,6.042,,14.8011,,14.7931,,14.7971,33.3419,,33.3431,33.3427,,33.3446,33.3439,5.6846,,6.0111,5.8529,5.7511,,6.0164,5.8571,5.8550,247.745,261.4914,206.3414,250.642,272.6938,206.4660,206.4037,0.1191,,0.6514,0.4051,2.6169,,0.0000,,24.7369,,24.7393,,,,,,,,,,,14.8002,14.7923,0.0157,319.997,98.456,99.592,,,,,,,,,,,,
CalCOFI,2105SH,011,,2105_011d,06-May-2021 08:57:40,06-May-2021 00:57:40,31.17812,-120.92022,093.3 080.0,093.3,080.0,7.000,7.049,,14.7879,,14.7892,,14.7886,33.3454,,33.3466,33.3443,,33.3462,33.3464,5.6853,,6.0118,5.8536,5.7500,,6.0153,5.8560,5.8548,247.777,261.5249,206.3650,250.595,272.7283,206.4316,206.3983,0.1138,,0.6137,0.3806,2.6164,,0.0000,,24.7425,,24.7414,,,,,,,,,,,14.7868,14.7881,0.0189,319.496,98.445,99.566,,,,,,,,,,,,
CalCOFI,2105SH,011,,2105_011d,06-May-2021 08:57:42,06-May-2021 00:57:42,31.17812,-120.92022,093.3 080.0,093.3,080.0,8.000,8.056,,14.7955,,14.7965,,14.7960,33.3430,,33.3442,33.3420,,33.3439,33.3441,5.6721,,5.9980,5.8400,5.7543,,6.0197,5.8604,5.8502,247.199,260.9206,205.9379,250.785,272.1041,206.5708,206.2544,0.1276,,0.7114,0.4445,2.6160,,0.0000,,24.7391,,24.7381,,,,,,,,,,,14.7943,14.7954,0.0221,319.851,98.229,99.655,,,,,,,,,,,,
CalCOFI,2105SH,011,,2105_011d,06-May-2021 08:57:44,06-May-2021 00:57:44,31.17810,-120.92022,093.3 080.0,093.3,080.0,9.000,9.063,,14.7958,,14.7907,,14.7933,33.3419,,33.3431,33.3419,,33.3438,33.3435,5.7064,,6.0339,5.8753,5.7580,,6.0235,5.8642,5.8698,248.697,262.4866,207.0448,250.943,273.7220,206.6865,206.8657,0.1153,,0.6244,0.3875,2.6158,,0.0000,,24.7382,,24.7393,,,,,,,,,,,14.7945,14.7893,0.0254,319.964,98.824,99.706,,,,,,,,,,,,
CalCOFI,2105SH,011,,2105_011d,06-May-2021 08:57:45,06-May-2021 00:57:45,31.17810,-120.92022,093.3 080.0,093.3,080.0,10.000,10.070,,14.8044,,14.8021,,14.8033,33.3385,,33.3397,33.3399,,33.3418,33.3408,5.6898,,6.0165,5.8582,5.7525,,6.0178,5.8586,5.8584,247.975,261.7319,206.5113,250.706,272.9422,206.5129,206.5121,0.1357,,0.7683,0.4821,2.6156,,0.0000,,24.7338,,24.7353,,,,,,,,,,,14.8029,14.8007,0.0286,320.419,98.551,99.633,10,14.784,,, ,,,,,,,
CalCOFI,2105SH,011,,2105_011d,06-May-2021 08:57:47,06-May-2021 00:57:47,31.17810,-120.92022,093.3 080.0,093.3,080.0,11.000,11.077,,14.8103,,14.8103,,14.8103,33.3360,,33.3372,33.3361,,33.3380,33.3376,5.6705,,5.9963,5.8384,5.7525,,6.0178,5.8586,5.8485,247.132,260.8506,205.8884,250.707,272.0317,206.5136,206.2010,0.1243,,0.6881,0.4292,2.6152,,0.0000,,24.7306,,24.7307,,,,,,,,,,,14.8087,14.8087,0.0318,320.751,98.226,99.647,,,,,,,,,,,,
CalCOFI,2105SH,011,,2105_011d,06-May-2021 08:57:49,06-May-2021 00:57:49,31.17810,-120.92022,093.3 080.0,093.3,080.0,12.000,12.084,,14.8128,,14.8127,,14.8128,33.3349,,33.3361,33.3351,,33.3370,33.3366,5.7062,,6.0336,5.8751,5.7471,,6.0122,5.8531,5.8641,248.688,262.4772,207.0382,250.469,273.7122,206.3393,206.6888,0.1041,,0.5446,0.3356,2.6148,,0.0000,,24.7293,,24.7294,,,,,,,,,,,14.8111,14.8109,0.0350,320.909,98.849,99.556,,,,,,,,,,,,
CalCOFI,2105SH,011,,2105_011d,06-May-2021 08:57:51,06-May-2021 00:57:51,31.17809,-120.92022,093.3 080.0,093.3,080.0,13.000,13.091,,14.8123,,14.8133,,14.8128,33.3352,,33.3364,33.3347,,33.3366,33.3365,5.6918,,6.0186,5.8603,5.7467,,6.0118,5.8527,5.8565,248.062,261.8228,206.5756,250.455,273.0361,206.3290,206.4523,0.1062,,0.5596,0.3453,2.6146,,0.0000,,24.7296,,24.7290,,,,,,,,,,,14.8103,14.8114,0.0383,320.901,98.599,99.552,,,,,,,,,,,,
CalCOFI,2105SH,011,,2105_011d,06-May-2021 08:57:53,06-May-2021 00:57:53,31.17808,-120.92022,093.3 080.0,093.3,080.0,14.000,14.098,,14.8106,,14.8116,,14.8111,33.3354,,33.3366,33.3348,,33.3367,33.3367,5.7180,,6.0460,5.8872,5.7511,,6.0164,5.8571,5.8722,249.205,263.0177,207.4202,250.645,274.2706,206.4682,206.9442,0.1063,,0.5603,0.3458,2.6143,,0.0000,,24.7301,,24.7295,,,,,,,,,,,14.8085,14.8095,0.0415,320.884,99.050,99.624,,,,,,,,,,,,
CalCOFI,2105SH,011,,2105_011d,06-May-2021 08:57:55,06-May-2021 00:57:55,31.17808,-120.92022,093.3 080.0,093.3,080.0,15.000,15.105,,14.8121,,14.8122,,14.8122,33.3345,,33.3357,33.3345,,33.3364,33.3361,5.6871,,6.0137,5.8555,5.7548,,6.0202,5.8609,5.8582,247.854,261.6054,206.4219,250.808,272.8115,206.5876,206.5048,0.1121,,0.6017,0.3727,2.6141,,0.0000,,24.7292,,24.7291,,,,,,,,,,,14.8099,14.8100,0.0447,321.003,98.516,99.690,,,,,,,,,,,,
CalCOFI,2105SH,011,,2105_011d,06-May-2021 08:57:57,06-May-2021 00:57:57,31.17807,-120.92022,093.3 080.0,093.3,080.0,16.000,16.112,,14.8065,,14.8038,,14.8052,33.3363,,33.3375,33.3368,,33.3387,33.3381,5.6779,,6.0040,5.8460,5.7550,,6.0204,5.8611,5.8536,247.453,261.1862,206.1256,250.814,272.3784,206.5920,206.3588,0.1073,,0.5674,0.3504,2.6139,,0.0000,,24.7318,,24.7327,,,,,,,,,,,14.8042,14.8014,0.0480,320.787,98.346,99.677,,,,,,,,,,,,
CalCOFI,2105SH,011,,2105_011d,06-May-2021 08:57:58,06-May-2021 00:57:58,31.17806,-120.92022,093.3 080.0,093.3,080.0,17.000,17.119,,14.7975,,14.7954,,14.7965,33.3392,,33.3404,33.3398,,33.3417,33.3411,5.6973,,6.0243,5.8660,5.7562,,6.0217,5.8623,5.8642,248.299,262.0706,206.7508,250.868,273.2921,206.6316,206.6912,0.1129,,0.6073,0.3764,2.6138,,0.0000,,24.7360,,24.7369,,,,,,,,,,,14.7949,14.7929,0.0512,320.411,98.667,99.684,,,,,,,,,,,,
CalCOFI,2105SH,011,,2105_011d,06-May-2021 08:58:00,06-May-2021 00:58:00,31.17806,-120.92022,093.3 080.0,093.3,080.0,18.000,18.126,,14.8113,,14.8091,,14.8102,33.3352,,33.3364,33.3380,,33.3399,33.3382,5.6853,,6.0118,5.8536,5.7516,,6.0169,5.8577,5.8557,247.778,261.5259,206.3658,250.668,272.7294,206.4851,206.4255,0.1142,,0.6166,0.3824,2.6138,,0.0000,,24.7299,,24.7326,,,,,,,,,,,14.8086,14.8065,0.0544,321.021,98.484,99.630,,,,,,,,,,,,
CalCOFI,2105SH,011,,2105_011d,06-May-2021 08:58:01,06-May-2021 00:58:01,31.17806,-120.92022,093.3 080.0,093.3,080.0,19.000,19.133,,14.8126,,14.8130,,14.8128,33.3355,,33.3367,33.3355,,33.3374,33.3371,5.6797,,6.0059,5.8479,5.7578,,6.0233,5.8640,5.8560,247.532,261.2688,206.1840,250.939,272.4637,206.6836,206.4338,0.1131,,0.6088,0.3773,2.6137,,0.0000,,24.7299,,24.7299,,,,,,,,,,,14.8098,14.8101,0.0577,321.052,98.389,99.744,,,,,,,,,,,,
CalCOFI,2105SH,011,,2105_011d,06-May-2021 08:58:04,06-May-2021 00:58:04,31.17806,-120.92022,093.3 080.0,093.3,080.0,20.000,20.140,,14.8153,,14.8175,,14.8164,33.3329,,33.3341,33.3318,,33.3337,33.3339,5.6732,,5.9991,5.8412,5.7514,,6.0167,5.8574,5.8493,247.251,260.9750,205.9764,250.660,272.1603,206.4792,206.2278,0.1129,,0.6073,0.3764,2.6135,,0.0000,,24.7275,,24.7261,,,,,,,,,,,14.8124,14.8145,0.0609,321.320,98.281,99.640,,,,,,,,,,,,
CalCOFI,2105SH,011,,2105_011d,06-May-2021 08:58:06,06-May-2021 00:58:06,31.17806,-120.92022,093.3 080.0,093.3,080.0,21.000,21.147,,14.8144,,14.8159,,14.8152,33.3342,,33.3354,33.3334,,33.3353,33.3354,5.6863,,6.0128,5.8546,5.7509,,6.0162,5.8569,5.8558,247.824,261.5740,206.3998,250.638,272.7791,206.4631,206.4315,0.1088,,0.5781,0.3574,2.6130,,0.0000,,24.7287,,24.7277,,,,,,,,,,,14.8112,14.8128,0.0641,321.234,98.508,99.629,,,,,,,,,,,,
CalCOFI,2105SH,011,,2105_011d,06-May-2021 08:58:08,06-May-2021 00:58:08,31.17804,-120.92022,093.3 080.0,093.3,080.0,22.000,22.154,,14.8156,,14.8159,,14.8158,33.3334,,33.3346,33.3332,,33.3351,33.3349,5.7015,,6.0287,5.8703,5.7496,,6.0148,5.8556,5.8630,248.486,262.2661,206.8889,250.580,273.4941,206.4206,206.6548,0.1246,,0.6902,0.4306,2.6122,,0.0000,,24.7278,,24.7276,,,,,,,,,,,14.8123,14.8126,0.0674,321.347,98.773,99.605,,,,,,,,,,,,
CalCOFI,2105SH,011,,2105_011d,06-May-2021 08:58:09,06-May-2021 00:58:09,31.17804,-120.92024,093.3 080.0,093.3,080.0,23.000,23.161,,14.8065,,14.8085,,14.8075,33.3399,,33.3411,33.3381,,33.3400,33.3406,5.6626,,5.9880,5.8303,5.7360,,6.0007,5.8418,5.8361,246.787,260.4899,205.6335,249.985,271.6591,205.9848,205.8092,0.0987,,0.5059,0.3106,2.6112,,0.0000,,24.7348,,24.7330,,,,,,,,,,,14.8031,14.8051,0.0706,320.706,98.084,99.358,,,,,,,,,,,,
CalCOFI,2105SH,011,,2105_011d,06-May-2021 08:58:11,06-May-2021 00:58:11,31.17804,-120.92024,093.3 080.0,093.3,080.0,24.000,24.168,,14.7991,,14.8015,,14.8003,33.3445,,33.3457,33.3428,,33.3447,33.3452,5.6443,,5.9689,5.8115,5.7231,,5.9874,5.8287,5.8201,245.988,259.6547,205.0431,249.422,270.7962,205.5724,205.3078,0.1088,,0.5781,0.3574,2.6099,,0.0000,,24.7400,,24.7382,,,,,,,,,,,14.7955,14.7979,0.0738,320.246,97.755,99.123,,,,,,,,,,,,
CalCOFI,2105SH,011,,2105_011d,06-May-2021 08:58:13,06-May-2021 00:58:13,31.17803,-120.92024,093.3 080.0,093.3,080.0,25.000,25.175,,14.6965,,14.6907,,14.6936,33.3399,,33.3411,33.3297,,33.3316,33.3364,5.6569,,5.9821,5.8244,5.7311,,5.9957,5.8368,5.8306,246.532,260.2234,205.4451,249.767,271.3837,205.8251,205.6351,0.1183,,0.6457,0.4014,2.6080,,0.0000,,24.7584,,24.7518,,,,,,,,,,,14.6928,14.6870,0.0770,318.517,97.769,99.034,,,,,,,,,,,,
CalCOFI,2105SH,011,,2105_011d,06-May-2021 08:58:15,06-May-2021 00:58:15,31.17802,-120.92024,093.3 080.0,093.3,080.0,26.000,26.182,,14.4805,,14.4774,,14.4790,33.3006,,33.3018,33.2894,,33.2913,33.2966,5.6839,,6.0103,5.8522,5.7621,,6.0278,5.8683,5.8603,247.706,261.4507,206.3126,251.115,272.6517,206.8125,206.5626,0.1245,,0.6895,0.4302,2.6060,,0.0000,,24.7741,,24.7662,,,,,,,,,,,14.4767,14.4736,0.0802,317.038,97.788,99.119,,,,,,,,,,,,
CalCOFI,2105SH,011,,2105_011d,06-May-2021 08:58:16,06-May-2021 00:58:16,31.17802,-120.92024,093.3 080.0,093.3,080.0,27.000,27.189,,14.3415,,14.3312,,14.3364,33.2746,,33.2758,33.2614,,33.2633,33.2696,5.6982,,6.0253,5.8669,5.7834,,6.0498,5.8900,5.8785,248.326,262.0988,206.7707,252.044,273.3213,207.4930,207.1319,0.1321,,0.7430,0.4654,2.6044,,0.0000,,24.7834,,24.7754,,,,,,,,,,,14.3375,14.3272,0.0834,316.176,97.743,99.177,,,,,,,,,,,,
CalCOFI,2105SH,011,,2105_011d,06-May-2021 08:58:18,06-May-2021 00:58:18,31.17802,-120.92024,093.3 080.0,093.3,080.0,28.000,28.196,,14.2866,,14.2855,,14.2861,33.2612,,33.2624,33.2562,,33.2581,33.2603,5.6912,,6.0180,5.8597,5.7812,,6.0476,5.8878,5.8738,248.022,261.7810,206.5461,251.944,272.9929,207.4197,206.9829,0.1381,,0.7851,0.4932,2.6022,,0.0000,,24.7847,,24.7810,,,,,,,,,,,14.2825,14.2814,0.0866,316.082,97.507,99.044,,,,,,,,,,,,
CalCOFI,2105SH,011,,2105_011d,06-May-2021 08:58:22,06-May-2021 00:58:22,31.17800,-120.92024,093.3 080.0,093.3,080.0,29.000,29.203,,14.2757,,14.2765,,14.2761,33.2584,,33.2596,33.2562,,33.2581,33.2589,5.7261,,6.0545,5.8956,5.7624,,6.0281,5.8686,5.8821,249.544,263.3721,207.6707,251.125,274.6367,206.8198,207.2453,0.1307,,0.7332,0.4589,2.5970,,0.0000,,24.7848,,24.7830,,,,,,,,,,,14.2715,14.2723,0.0898,316.099,98.082,98.704,,,,,,,,,,,,
CalCOFI,2105SH,011,,2105_011d,06-May-2021 08:58:23,06-May-2021 00:58:23,31.17800,-120.92024,093.3 080.0,093.3,080.0,30.000,30.211,,14.2680,,14.2683,,14.2682,33.2589,,33.2601,33.2565,,33.2584,33.2593,5.6860,,6.0125,5.8543,5.7420,,6.0070,5.8479,5.8511,247.794,261.5426,206.3776,250.236,272.7467,206.1686,206.2731,0.1325,,0.7458,0.4673,2.5952,,0.0000,,24.7869,,24.7850,,,,,,,,,,,14.2637,14.2640,0.0930,315.934,97.380,98.339,30,14.254,,,260.73,0.481,0.197,0.79,0.102,0.07,0.40,1.61
CalCOFI,2105SH,011,,2105_011d,06-May-2021 08:58:24,06-May-2021 00:58:24,31.17800,-120.92024,093.3 080.0,093.3,080.0,31.000,31.218,,14.2612,,14.2613,,14.2613,33.2597,,33.2609,33.2576,,33.2595,33.2602,5.6762,,6.0023,5.8443,5.7392,,6.0041,5.8450,5.8447,247.368,261.0973,206.0628,250.112,272.2866,206.0778,206.0703,0.1342,,0.7578,0.4751,2.5939,,0.0000,,24.7889,,24.7873,,,,,,,,,,,14.2567,14.2568,0.0962,315.762,97.200,98.277,,,,,,,,,,,,
CalCOFI,2105SH,011,,2105_011d,06-May-2021 08:58:25,06-May-2021 00:58:25,31.17800,-120.92024,093.3 080.0,093.3,080.0,32.000,32.225,,14.2540,,14.2544,,14.2542,33.2649,,33.2661,33.2635,,33.2654,33.2658,5.6697,,5.9955,5.8376,5.7364,,6.0012,5.8422,5.8399,247.083,260.7994,205.8522,249.990,271.9788,205.9884,205.9203,0.1366,,0.7746,0.4863,2.5925,,0.0000,,24.7945,,24.7933,,,,,,,,,,,14.2494,14.2497,0.0993,315.264,97.078,98.220,,,,,,,,,,,,
CalCOFI,2105SH,011,,2105_011d,06-May-2021 08:58:27,06-May-2021 00:58:27,31.17800,-120.92024,093.3 080.0,093.3,080.0,33.000,33.232,,14.2528,,14.2534,,14.2531,33.2686,,33.2698,33.2673,,33.2692,33.2695,5.6580,,5.9832,5.8256,5.7348,,5.9995,5.8406,5.8331,246.573,260.2662,205.4754,249.921,271.4280,205.9379,205.7067,0.1452,,0.8346,0.5261,2.5893,,0.0000,,24.7976,,24.7965,,,,,,,,,,,14.2481,14.2486,0.1025,314.995,96.877,98.193,,,,,,,,,,,,
CalCOFI,2105SH,011,,2105_011d,06-May-2021 08:58:29,06-May-2021 00:58:29,31.17798,-120.92024,093.3 080.0,093.3,080.0,34.000,34.239,,14.2547,,14.2552,,14.2550,33.2720,,33.2732,33.2710,,33.2729,33.2731,5.6588,,5.9841,5.8264,5.7169,,5.9810,5.8223,5.8244,246.606,260.3007,205.4998,249.140,271.4637,205.3658,205.4328,0.1498,,0.8665,0.5474,2.5840,,0.0000,,24.7998,,24.7990,,,,,,,,,,,14.2498,14.2503,0.1057,314.811,96.896,97.892,,,,,,,,,,,,
CalCOFI,2105SH,011,,2105_011d,06-May-2021 08:58:31,06-May-2021 00:58:31,31.17798,-120.92024,093.3 080.0,093.3,080.0,35.000,35.246,,14.2270,,14.2275,,14.2273,33.2757,,33.2769,33.2726,,33.2745,33.2757,5.6526,,5.9776,5.8200,5.7094,,5.9732,5.8147,5.8174,246.335,260.0174,205.2995,248.811,271.1710,205.1248,205.2122,0.1533,,0.8908,0.5637,2.5804,,0.0000,,24.8085,,24.8061,,,,,,,,,,,14.2219,14.2225,0.1089,314.012,96.738,97.710,,,,,,,,,,,,
CalCOFI,2105SH,011,,2105_011d,06-May-2021 08:58:34,06-May-2021 00:58:34,31.17798,-120.92026,093.3 080.0,093.3,080.0,36.000,36.253,,14.1836,,14.1843,,14.1840,33.2732,,33.2744,33.2713,,33.2732,33.2738,5.6544,,5.9795,5.8219,5.7075,,5.9712,5.8128,5.8174,246.411,260.0969,205.3557,248.724,271.2531,205.0611,205.2084,0.1504,,0.8707,0.5502,2.5751,,0.0000,,24.8158,,24.8141,,,,,,,,,,,14.1784,14.1791,0.1120,313.349,96.683,97.590,,,,,,,,,,,,
CalCOFI,2105SH,011,,2105_011d,06-May-2021 08:58:36,06-May-2021 00:58:36,31.17798,-120.92026,093.3 080.0,093.3,080.0,37.000,37.260,,14.1594,,14.1596,,14.1595,33.2724,,33.2736,33.2698,,33.2717,33.2727,5.6304,,5.9544,5.7972,5.6890,,5.9521,5.7940,5.7956,245.364,259.0023,204.5820,247.916,270.1223,204.4692,204.5256,0.1475,,0.8506,0.5368,2.5707,,0.0000,,24.8202,,24.8181,,,,,,,,,,,14.1541,14.1542,0.1152,312.955,96.225,97.224,,,,,,,,,,,,
CalCOFI,2105SH,011,,2105_011d,06-May-2021 08:58:37,06-May-2021 00:58:37,31.17797,-120.92026,093.3 080.0,093.3,080.0,38.000,38.268,,14.1365,,14.1371,,14.1368,33.2710,,33.2722,33.2686,,33.2705,33.2714,5.6245,,5.9482,5.7911,5.6904,,5.9535,5.7954,5.7933,245.104,258.7305,204.3899,247.977,269.8415,204.5139,204.4519,0.1502,,0.8693,0.5493,2.5689,,0.0000,,24.8239,,24.8220,,,,,,,,,,,14.1311,14.1317,0.1183,312.630,96.078,97.204,,,,,,,,,,,,
CalCOFI,2105SH,011,,2105_011d,06-May-2021 08:58:38,06-May-2021 00:58:38,31.17796,-120.92026,093.3 080.0,093.3,080.0,39.000,39.275,,14.1310,,14.1314,,14.1312,33.2707,,33.2719,33.2693,,33.2712,33.2716,5.6246,,5.9483,5.7912,5.6970,,5.9604,5.8021,5.7967,245.109,258.7357,204.3936,248.263,269.8469,204.7234,204.5585,0.1403,,0.8004,0.5034,2.5670,,0.0000,,24.8249,,24.8237,,,,,,,,,,,14.1254,14.1258,0.1215,312.566,96.069,97.305,,,,,,,,,,,,
CalCOFI,2105SH,011,,2105_011d,06-May-2021 08:58:39,06-May-2021 00:58:39,31.17796,-120.92026,093.3 080.0,093.3,080.0,40.000,40.282,,14.1220,,14.1225,,14.1223,33.2707,,33.2719,33.2692,,33.2711,33.2715,5.6291,,5.9530,5.7958,5.6904,,5.9535,5.7954,5.7956,245.307,258.9427,204.5399,247.978,270.0607,204.5146,204.5273,0.1454,,0.8360,0.5270,2.5646,,0.0000,,24.8268,,24.8255,,,,,,,,,,,14.1163,14.1168,0.1246,312.408,96.129,97.176,,,,,,,,,,,,
CalCOFI,2105SH,011,,2105_011d,06-May-2021 08:58:42,06-May-2021 00:58:42,31.17796,-120.92026,093.3 080.0,093.3,080.0,41.000,41.289,,14.1033,,14.1042,,14.1038,33.2705,,33.2717,33.2687,,33.2706,33.2712,5.6334,,5.9575,5.8003,5.6898,,5.9529,5.7948,5.7976,245.494,259.1382,204.6781,247.951,270.2627,204.4949,204.5865,0.1458,,0.8387,0.5289,2.5606,,0.0000,,24.8305,,24.8290,,,,,,,,,,,14.0975,14.0983,0.1278,312.082,96.166,97.129,,,,,,,,,,,,
CalCOFI,2105SH,011,,2105_011d,06-May-2021 08:58:44,06-May-2021 00:58:44,31.17795,-120.92026,093.3 080.0,093.3,080.0,42.000,42.296,,14.0890,,14.0892,,14.0891,33.2697,,33.2709,33.2685,,33.2704,33.2707,5.6142,,5.9374,5.7805,5.6935,,5.9567,5.7985,5.7895,244.654,258.2601,204.0574,248.109,269.3555,204.6106,204.3340,0.1499,,0.8672,0.5479,2.5571,,0.0000,,24.8329,,24.8319,,,,,,,,,,,14.0829,14.0832,0.1309,311.881,95.809,97.162,,,,,,,,,,,,
CalCOFI,2105SH,011,,2105_011d,06-May-2021 08:58:47,06-May-2021 00:58:47,31.17794,-120.92026,093.3 080.0,093.3,080.0,43.000,43.303,,14.0815,,14.0823,,14.0819,33.2694,,33.2706,33.2685,,33.2704,33.2705,5.6190,,5.9425,5.7855,5.6564,,5.9183,5.7608,5.7732,244.861,258.4765,204.2103,246.494,269.5791,203.4276,203.8190,0.1435,,0.8227,0.5182,2.5515,,0.0000,,24.8342,,24.8334,,,,,,,,,,,14.0754,14.0762,0.1340,311.783,95.876,96.516,,,,,,,,,,,,
CalCOFI,2105SH,011,,2105_011d,06-May-2021 08:58:49,06-May-2021 00:58:49,31.17794,-120.92026,093.3 080.0,093.3,080.0,44.000,44.310,,14.0174,,14.0196,,14.0185,33.2707,,33.2719,33.2636,,33.2655,33.2687,5.5481,,5.8683,5.7126,5.6139,,5.8743,5.7175,5.7151,241.769,255.2441,201.9255,244.640,266.2397,202.0696,201.9976,0.1441,,0.8269,0.5210,2.5470,,0.0000,,24.8486,,24.8427,,,,,,,,,,,14.0111,14.0133,0.1372,310.441,94.544,95.666,,,,,,,,,,,,
CalCOFI,2105SH,011,,2105_011d,06-May-2021 08:58:51,06-May-2021 00:58:51,31.17793,-120.92026,093.3 080.0,093.3,080.0,45.000,45.318,,13.8586,,13.8590,,13.8588,33.2623,,33.2635,33.2543,,33.2562,33.2599,5.5393,,5.8591,5.7035,5.6263,,5.8871,5.7302,5.7169,241.380,254.8375,201.6381,245.173,265.8196,202.4600,202.0491,0.1325,,0.7458,0.4673,2.5432,,0.0000,,24.8749,,24.8687,,,,,,,,,,,13.8523,13.8526,0.1403,307.948,94.085,95.559,,,,,,,,,,,,
CalCOFI,2105SH,011,,2105_011d,06-May-2021 08:58:52,06-May-2021 00:58:52,31.17792,-120.92026,093.3 080.0,093.3,080.0,46.000,46.325,,13.7731,,13.7726,,13.7729,33.2557,,33.2569,33.2484,,33.2503,33.2536,5.5314,,5.8508,5.6954,5.6308,,5.8918,5.7347,5.7151,241.036,254.4778,201.3839,245.366,265.4481,202.6014,201.9927,0.1239,,0.6853,0.4274,2.5398,,0.0000,,24.8875,,24.8819,,,,,,,,,,,13.7667,13.7661,0.1434,306.777,93.785,95.464,,,,,,,,,,,,
CalCOFI,2105SH,011,,2105_011d,06-May-2021 08:58:53,06-May-2021 00:58:53,31.17792,-120.92026,093.3 080.0,093.3,080.0,47.000,47.332,,13.7456,,13.7458,,13.7457,33.2524,,33.2536,33.2493,,33.2512,33.2524,5.5490,,5.8692,5.7135,5.6344,,5.8955,5.7384,5.7260,241.802,255.2786,201.9499,245.524,266.2753,202.7171,202.3335,0.1310,,0.7353,0.4603,2.5364,,0.0000,,24.8906,,24.8881,,,,,,,,,,,13.7390,13.7391,0.1465,306.507,94.029,95.474,,,,,,,,,,,,
CalCOFI,2105SH,011,,2105_011d,06-May-2021 08:58:56,06-May-2021 00:58:56,31.17791,-120.92026,093.3 080.0,093.3,080.0,48.000,48.339,,13.7262,,13.7265,,13.7264,33.2537,,33.2549,33.2512,,33.2531,33.2540,5.5698,,5.8910,5.7349,5.6302,,5.8912,5.7341,5.7345,242.704,256.2216,202.6164,245.337,267.2495,202.5801,202.5983,0.1266,,0.7043,0.4399,2.5293,,0.0000,,24.8956,,24.8936,,,,,,,,,,,13.7194,13.7198,0.1496,306.056,94.343,95.366,,,,,,,,,,,,
CalCOFI,2105SH,011,,2105_011d,06-May-2021 08:58:59,06-May-2021 00:58:59,31.17790,-120.92026,093.3 080.0,093.3,080.0,49.000,49.346,,13.7154,,13.7161,,13.7158,33.2555,,33.2567,33.2538,,33.2557,33.2562,5.5781,,5.8997,5.7434,5.6270,,5.8878,5.7309,5.7372,243.067,256.6010,202.8847,245.197,267.6415,202.4776,202.6812,0.1153,,0.6244,0.3875,2.5200,,0.0000,,24.8992,,24.8977,,,,,,,,,,,13.7086,13.7092,0.1526,305.742,94.465,95.293,,,,,,,,,,,,
CalCOFI,2105SH,011,,2105_011d,06-May-2021 08:59:01,06-May-2021 00:59:01,31.17790,-120.92026,093.3 080.0,093.3,080.0,50.000,50.354,,13.7084,,13.7090,,13.7087,33.2575,,33.2587,33.2556,,33.2575,33.2581,5.5481,,5.8683,5.7126,5.6038,,5.8638,5.7073,5.7100,241.760,255.2347,201.9189,244.187,266.2300,201.7377,201.8283,0.1172,,0.6379,0.3963,2.5134,,0.0000,,24.9022,,24.9006,,,,,,,,,,,13.7013,13.7019,0.1557,305.485,93.945,94.888,50,13.055,,,250.52,0.456,0.251,3.34,0.279,0.07,0.55,3.05
CalCOFI,2105SH,011,,2105_011d,06-May-2021 08:59:03,06-May-2021 00:59:03,31.17790,-120.92026,093.3 080.0,093.3,080.0,51.000,51.361,,13.6795,,13.6802,,13.6799,33.2609,,33.2621,33.2582,,33.2601,33.2611,5.4752,,5.7921,5.6376,5.5316,,5.7890,5.6338,5.6357,238.579,251.9093,199.5683,241.037,262.7945,199.4304,199.4994,0.1162,,0.6308,0.3917,2.5038,,0.0000,,24.9108,,24.9085,,,,,,,,,,,13.6723,13.6730,0.1588,304.691,92.657,93.612,,,,,,,,,,,,
CalCOFI,2105SH,011,,2105_011d,06-May-2021 08:59:04,06-May-2021 00:59:04,31.17790,-120.92026,093.3 080.0,093.3,080.0,52.000,52.368,,13.6341,,13.6344,,13.6343,33.2700,,33.2712,33.2655,,33.2674,33.2693,5.4328,,5.7477,5.5940,5.4589,,5.7137,5.5598,5.5769,236.727,249.9732,198.1998,237.864,260.7943,197.1061,197.6530,0.1091,,0.5803,0.3588,2.4951,,0.0000,,24.9270,,24.9235,,,,,,,,,,,13.6268,13.6271,0.1618,303.167,91.860,92.299,,,,,,,,,,,,
CalCOFI,2105SH,011,,2105_011d,06-May-2021 08:59:05,06-May-2021 00:59:05,31.17788,-120.92026,093.3 080.0,093.3,080.0,53.000,53.375,,13.4762,,13.4764,,13.4763,33.3221,,33.3233,33.3148,,33.3167,33.3200,5.3701,,5.6822,5.5296,5.3711,,5.6228,5.4705,5.5001,233.978,247.0994,196.1685,234.026,257.8254,194.2948,195.2317,0.1083,,0.5746,0.3551,2.4860,,0.0000,,24.9995,,24.9937,,,,,,,,,,,13.4688,13.4691,0.1649,296.292,90.536,90.551,,,,,,,,,,,,
CalCOFI,2105SH,011,,2105_011d,06-May-2021 08:59:07,06-May-2021 00:59:07,31.17788,-120.92027,093.3 080.0,093.3,080.0,54.000,54.382,,13.3947,,13.3975,,13.3961,33.3333,,33.3345,33.3234,,33.3253,33.3299,5.2646,,5.5718,5.4211,5.3345,,5.5849,5.4333,5.4272,229.378,242.2906,192.7694,232.425,252.8574,193.1221,192.9458,0.1118,,0.5995,0.3713,2.4743,,0.0000,,25.0245,,25.0163,,,,,,,,,,,13.3872,13.3900,0.1678,293.925,88.616,89.792,,,,,,,,,,,,
CalCOFI,2105SH,011,,2105_011d,06-May-2021 08:59:09,06-May-2021 00:59:09,31.17788,-120.92027,093.3 080.0,093.3,080.0,55.000,55.390,,12.8318,,12.8371,,12.8345,33.2823,,33.2835,33.2643,,33.2662,33.2749,5.3015,,5.6104,5.4590,5.3639,,5.6153,5.4632,5.4611,230.968,243.9527,193.9444,233.691,254.5746,194.0494,193.9969,0.0990,,0.5080,0.3120,2.4514,,0.0000,,25.0968,,25.0818,,,,,,,,,,,12.8244,12.8297,0.1708,287.021,88.179,89.217,,,,,,,,,,,,